CW4482 Weather Reports


Display with metric or nautical units.
time (UTC)temp
F
wind
direction
speed
MPH
gust
MPH
rain 1hr
in
rain 24hr
in
rain mn
in
humidity
%
barometer
mb
20260905103013 77 360 0.0 0.0 0.00 0.00 0.00 91 1012.4
20260905101517 77 360 0.0 0.0 0.00 0.00 0.00 91 1012.3
20260905100026 77 360 0.0 0.0 0.00 0.00 0.00 91 1012.2
20260905094526 77 360 0.0 0.0 0.00 0.00 0.00 90 1012.1
20260905093015 78 360 0.0 0.0 0.00 0.00 0.00 91 1012.3
20260905091520 77 360 0.0 0.0 0.00 0.00 0.00 90 1012.1
20260905090029 78 360 0.0 0.0 0.00 0.00 0.00 90 1012.1
20260905084513 78 360 0.0 0.0 0.00 0.00 0.00 90 1012.0
20260905083022 78 360 0.0 0.0 0.00 0.00 0.00 90 1012.0
20260905081543 78 360 0.0 0.0 0.00 0.00 0.00 90 1011.9
20260905080024 78 360 0.0 0.0 0.00 0.00 0.00 90 1012.0
20260905074534 78 360 0.0 0.0 0.00 0.00 0.00 90 1012.2
20260905073016 78 360 0.0 0.0 0.00 0.00 0.00 90 1012.2
20260905071525 78 360 0.0 0.0 0.00 0.00 0.00 89 1012.4
20260905070027 78 360 0.0 0.0 0.00 0.00 0.00 89 1012.6
20260905064515 78 360 0.0 0.0 0.00 0.00 0.00 89 1012.6
20260905063020 78 360 0.0 0.0 0.00 0.00 0.00 89 1012.8
20260905061529 79 360 0.0 0.0 0.00 0.00 0.00 89 1012.9
20260905060031 79 360 0.0 0.0 0.00 0.00 0.00 88 1012.8
20260905054519 79 360 0.0 0.0 0.00 0.00 0.00 88 1012.8
20260905053021 79 360 0.0 0.0 0.00 0.00 0.00 88 1012.9
20260905051529 79 360 0.0 0.0 0.00 0.00 0.00 87 1012.7
20260905050010 79 360 0.0 0.0 0.00 0.00 0.00 88 1012.8
20260905044518 79 360 0.0 0.0 0.00 0.00 0.00 87 1012.7
20260905043023 80 360 0.0 0.0 0.00 0.00 0.00 87 1012.9
20260905041547 80 360 0.0 0.0 0.00 0.00 0.00 86 1012.9
20260905040029 80 360 0.0 0.0 0.00 0.00 0.00 86 1013.1
20260905034513 80 360 0.0 1.0 0.00 0.00 0.00 86 1013.2
20260905033020 80 360 0.0 0.0 0.00 0.00 0.00 85 1013.2
20260905031521 81 360 0.0 0.0 0.00 0.00 0.00 84 1013.2
20260905030028 81 360 0.0 0.0 0.00 0.00 0.00 84 1013.2
20260905024513 81 360 0.0 0.0 0.00 0.00 0.00 83 1013.0
20260905023020 82 360 0.0 0.0 0.00 0.00 0.00 82 1012.8
20260905021523 82 360 0.0 0.0 0.00 0.00 0.00 81 1012.8
20260905020012 83 360 0.0 0.0 0.00 0.00 0.00 81 1012.7
20260905014517 83 360 0.0 3.0 0.00 0.00 0.00 80 1012.4
20260905013021 83 360 1.0 3.0 0.00 0.00 0.00 79 1012.4
20260905011524 84 360 0.0 1.0 0.00 0.00 0.00 77 1012.2
20260905010013 85 360 0.0 3.0 0.00 0.00 0.00 76 1012.2
20260905004516 86 360 2.0 3.0 0.00 0.00 0.00 75 1012.0
20260905003018 86 360 0.0 3.0 0.00 0.00 0.00 74 1011.6
20260905001545 87 360 1.0 4.0 0.00 0.00 0.00 73 1011.8
20260905000029 88 360 2.0 4.0 0.00 0.00 0.00 71 1011.7
20260904234538 89 360 1.0 4.0 0.00 0.00 0.00 69 1011.7
20260904233022 90 360 0.0 3.0 0.00 0.00 0.00 67 1011.8
20260904231528 91 360 1.0 4.0 0.00 0.00 0.00 66 1011.8
20260904230012 91 360 2.0 4.0 0.00 0.00 0.00 67 1011.7
20260904224521 91 360 0.0 9.0 0.00 0.00 0.00 65 1011.7
20260904223026 91 360 3.0 4.0 0.00 0.00 0.00 64 1011.7
20260904221515 90 360 2.0 5.0 0.00 0.00 0.00 66 1011.9
20260904220018 91 360 1.0 4.0 0.00 0.00 0.00 64 1011.9
20260904214543 90 360 0.0 3.0 0.00 0.00 0.00 71 1011.8
20260904213010 88 360 1.0 3.0 0.00 0.00 0.00 72 1012.1
20260904211514 87 360 0.0 4.0 0.00 0.00 0.00 74 1012.2
20260904210022 86 360 1.0 5.0 0.00 0.00 0.00 74 1012.5
20260904204547 87 360 2.0 5.0 0.00 0.00 0.00 72 1012.6
20260904203034 88 360 1.0 5.0 0.00 0.00 0.00 71 1012.6
20260904201517 90 360 2.0 6.0 0.00 0.00 0.00 67 1012.7
20260904200024 92 360 1.0 4.0 0.00 0.00 0.00 65 1012.8
20260904194528 91 360 1.0 5.0 0.00 0.00 0.00 64 1012.8
20260904193016 91 360 1.0 3.0 0.00 0.00 0.00 67 1013.0
20260904191518 91 360 2.0 4.0 0.00 0.00 0.00 63 1013.1
20260904190010 89 360 2.0 6.0 0.00 0.00 0.00 65 1013.3
20260904184516 91 360 1.0 2.0 0.00 0.00 0.00 66 1013.8
20260904183039 92 360 2.0 9.0 0.00 0.00 0.00 65 1014.0
20260904181521 91 360 2.0 4.0 0.00 0.00 0.00 66 1014.4
20260904180019 90 360 1.0 6.0 0.00 0.00 0.00 72 1014.4
20260904174528 89 360 2.0 8.0 0.00 0.00 0.00 73 1014.5
20260904173033 86 360 0.0 2.0 0.00 0.00 0.00 80 1014.7
20260904171520 84 355 2.0 3.0 0.00 0.00 0.00 82 1014.7
20260904170021 82 360 0.0 3.0 0.00 0.00 0.00 83 1014.8
20260904164528 83 360 0.0 3.0 0.00 0.00 0.00 83 1014.9
20260904163009 83 360 1.0 4.0 0.00 0.00 0.00 85 1014.9
20260904161514 84 360 0.0 3.0 0.00 0.00 0.00 85 1014.8
20260904160020 84 360 0.0 5.0 0.00 0.00 0.00 85 1014.7
20260904154543 84 360 0.0 3.0 0.00 0.00 0.00 88 1014.7
20260904153010 84 360 0.0 0.0 0.00 0.00 0.00 87 1014.6
20260904151512 84 360 0.0 0.0 0.00 0.00 0.00 88 1014.3
20260904150019 83 360 2.0 4.0 0.00 0.00 0.00 88 1014.3
20260904144524 82 360 0.0 2.0 0.00 0.00 0.00 93 1014.2
20260904143010 81 360 2.0 4.0 0.00 0.00 0.00 93 1014.2
20260904141515 81 360 0.0 3.0 0.00 0.00 0.00 93 1014.1
20260904140044 80 360 1.0 2.0 0.00 0.00 0.00 93 1014.0
20260904134525 80 360 0.0 0.0 0.00 0.00 0.00 93 1013.9
20260904133014 80 360 0.0 0.0 0.00 0.00 0.00 93 1013.9
20260904131516 80 360 0.0 0.0 0.00 0.00 0.00 93 1013.7
20260904130018 79 360 0.0 0.0 0.00 0.00 0.00 93 1013.8
20260904124524 79 360 0.0 0.0 0.00 0.00 0.00 93 1013.5
20260904123026 79 360 0.0 0.0 0.00 0.00 0.00 93 1013.3
20260904121515 78 360 0.0 0.0 0.00 0.00 0.00 92 1013.1
20260904120017 78 360 0.0 0.0 0.00 0.00 0.00 92 1013.0
20260904114524 79 360 0.0 0.0 0.00 0.00 0.00 92 1012.9
20260904113027 79 360 0.0 0.0 0.00 0.00 0.00 92 1012.9
20260904111516 79 360 0.0 0.0 0.00 0.00 0.00 92 1012.9
20260904110017 79 360 0.0 2.0 0.00 0.00 0.00 92 1012.8
20260904104525 79 360 0.0 0.0 0.00 0.00 0.00 92 1012.9